Overview Statistics Trail Chart Weather Telemetry Raw packets
 

This is the latest recevied weather packets stored in our database for station/object LU4EGV-13. If no packets are shown the sender has not sent any weather packets the latest 10 day(s).

<< 36 37 38 39 40 41 42 >>
Time Temp. Humidity Pressure Rain* Wind** Luminosity Snow
1788121994 22.78° C 32% 1012.6 hPa 0 mm - - -
1788121387 22.78° C 34% 1012.6 hPa 0 mm - - -
1788120781 23.89° C 31% 1012.6 hPa 0 mm - - -
1788120175 23.89° C 32% 1012.4 hPa 0 mm - - -
1788119569 24.44° C 31% 1012.5 hPa 0 mm - - -
1788118962 24.44° C 32% 1012.6 hPa 0 mm - - -
1788118356 23.89° C 32% 1012.4 hPa 0 mm - - -
1788117751 24.44° C 32% 1012.3 hPa 0 mm - - -
1788117144 24.44° C 31% 1012.5 hPa 0 mm - - -
1788116538 24.44° C 31% 1012.5 hPa 0 mm - - -
1788115931 23.89° C 31% 1012.4 hPa 0 mm - - -
1788115326 23.89° C 31% 1012.5 hPa 0 mm - - -
1788114720 23.89° C 29% 1012.6 hPa 0 mm - - -
1788114113 23.89° C 27% 1012.6 hPa 0 mm - - -
1788113507 24.44° C 25% 1012.6 hPa 0 mm - - -
1788112901 24.44° C 25% 1012.9 hPa 0 mm - - -
1788112295 23.89° C 23% 1012.9 hPa 0 mm - - -
1788111691 23.33° C 23% 1013 hPa 0 mm - - -
1788111089 23.33° C 27% 1013 hPa 0 mm - - -
1788110484 22.78° C 25% 1013.2 hPa 0 mm - - -
1788109885 22.78° C 24% 1013.4 hPa 0 mm - - -
1788109282 21.67° C 28% 1013.5 hPa 0 mm - - -
1788108661 22.78° C 29% 1013.5 hPa 0 mm - - -
1788108054 22.78° C 30% 1013.5 hPa 0 mm - - -
1788107448 21.67° C 35% 1013.8 hPa 0 mm - - -

* Rain latest hour (hover to see other rain measurements)
** Current wind speed in m/s (hover to see current wind gust speed)